Location: Newark
(13.9550°N, 109.0422°E)
Time: 18:40:58
(UTC+00:00)

Hubble Space Telescope - Pass Details

Date: 01 November 2019
Orbit: 536 x 540 km, 28.5° (Epoch: 14 November)

Event Time Altitude Azimuth Distance (km) Brightness Sun altitude
Exits shadow 21:41:33 - 337° (NNW) 1,851 3.2 -14.3°
Reaches altitude 10° 21:42:18 10° 347° (NNW) 1,778 3.2 -14.1°
Maximum altitude 21:43:01 10° 357° (N) 1,754 3.2 -14.0°
Drops below altitude 10° 21:43:44 10° 7° (N) 1,777 3.4 -13.8°
Sets 21:48:02 0° 50° (NE) 2,667 4.9 -12.8°
